COMS 1

Last updated on Sun Jun 21 2026 00:02:46 GMT+0000 (Coordinated Universal Time)

1 36744U 10032A 26171.12316773 .00000087 00000+0 00000+0 0 9990 2 36744 4.8136 75.3217 0011650 12.3209 286.7612 0.99163259 51117
UTC large
Height (km)
Speed (km/s)
/
Latitude / Longitude
Inclination (degrees)
Orbital Period (minutes)
Azimuth
Elevation
Range (km)
Doppler Factor

Next 0 passes for location: London (51.5072 / 0.1276)

No passes found over London.
COMS 1